ECMWFNIL_500_rhum_000.txt.gz
RH
20 26 32 37 36 27 22 23 26 29 32 35 39 44 47 48 50 55 57 58 61 60 50 34 20 15 14 14 14 15 17 18 19 19 17 15 14 14 14 14 13 14
27 32 35 34 29 23 23 27 29 30 31 36 44 53 60 58 50 43 40 45 53 57 56 49 35 26 21 18 16 15 15 16 17 20 22 19 17 14 14 15 15 14
30 31 30 27 24 22 25 27 28 28 29 34 43 55 68 73 61 39 20 19 35 48 55 54 46 37 32 28 22 13 9 10 12 16 22 23 20 17 15 15 16 15
27 25 25 25 22 21 25 31 34 33 31 34 41 56 77 83 66 42 23 19 34 54 61 59 53 45 42 42 35 19 6 5 8 11 16 22 22 20 17 17 18 17
23 22 22 22 22 22 28 36 40 41 42 46 52 65 84 87 74 61 52 43 48 61 63 58 56 52 49 52 50 34 14 6 9 11 11 15 20 20 19 19 20 18
20 19 22 28 34 37 39 40 45 50 54 63 74 84 94 97 93 92 88 76 68 72 68 59 57 56 53 56 60 56 39 19 12 16 18 17 17 19 21 23 22 20
25 31 39 46 51 56 59 61 65 68 70 80 93 99 100 98 96 98 100 93 84 84 82 72 67 67 66 66 64 64 62 47 29 22 25 30 30 25 22 24 24 22
38 45 51 54 56 62 72 82 89 90 90 94 99 99 97 90 86 92 100 99 93 94 94 87 81 80 82 84 78 69 66 64 56 43 38 47 54 48 33 23 23 23
35 35 40 45 51 61 74 86 94 95 94 94 92 95 99 92 87 93 99 100 100 101 99 97 94 89 89 93 92 83 69 64 69 70 66 67 69 65 49 30 23 24
25 36 51 56 62 69 76 88 91 89 92 93 91 97 101 94 90 95 96 94 96 99 101 101 100 97 94 91 89 84 70 60 67 75 79 78 69 65 59 39 24 24
26 44 66 73 76 72 71 84 90 90 94 96 94 98 97 90 91 96 95 92 90 93 99 101 100 98 94 84 81 81 72 63 64 67 70 71 62 59 63 48 25 23
31 39 63 81 89 82 73 76 82 87 93 93 91 91 88 87 91 92 92 91 86 85 90 90 88 87 80 70 69 77 80 76 70 64 65 69 62 55 65 60 35 24
35 39 58 76 80 72 66 70 79 85 86 84 85 84 81 81 83 84 85 83 79 78 77 73 73 74 69 64 63 68 79 87 87 79 73 75 71 61 67 72 52 31
42 43 51 54 48 47 60 77 88 85 74 70 74 79 80 75 70 74 80 79 74 75 75 72 76 78 69 63 63 66 73 86 97 97 88 83 80 73 73 81 70 47
42 41 44 42 39 48 67 81 81 71 65 64 64 66 67 64 56 52 51 52 55 61 63 59 60 62 56 52 58 66 72 82 95 102 98 94 90 84 84 90 83 65
39 39 42 42 41 50 64 73 69 62 62 60 54 52 50 49 50 41 26 26 38 44 39 33 32 37 39 44 55 63 68 77 92 100 99 100 97 89 92 98 90 76
39 40 43 50 56 61 69 76 73 70 68 57 50 56 55 49 51 46 28 21 29 32 25 22 28 34 36 42 52 60 64 74 91 100 99 100 100 94 96 100 96 89
38 40 45 58 71 76 76 74 72 76 76 67 64 74 76 65 56 49 38 25 20 22 21 19 26 34 38 42 51 60 66 76 93 101 99 98 99 99 99 100 99 98
41 43 49 56 62 66 66 65 68 73 71 68 70 75 81 82 71 58 53 39 23 19 19 17 22 31 39 45 52 59 66 77 91 97 97 98 98 98 99 98 100 101
47 49 53 54 53 57 61 64 71 76 72 68 66 66 75 87 84 72 66 52 30 18 17 17 22 29 38 45 48 51 59 71 83 90 96 99 98 99 101 100 98 97
52 54 59 61 63 65 66 69 74 77 76 73 72 73 78 81 78 73 71 60 36 18 18 25 29 34 45 50 45 44 53 65 76 86 93 98 100 99 98 94 90 88
56 60 63 66 70 71 72 75 75 74 75 75 78 83 85 81 74 67 66 61 38 18 21 33 41 48 56 57 49 47 52 59 68 77 83 90 94 90 85 85 87 89
62 64 67 70 72 71 71 74 76 79 82 83 85 90 92 89 80 66 61 55 34 19 24 35 44 56 65 61 53 51 52 55 61 67 73 80 84 82 80 84 89 90
65 69 73 74 72 71 73 76 81 89 93 93 94 96 98 97 86 70 60 48 28 17 23 30 36 51 64 65 58 53 54 58 62 68 78 85 87 87 88 88 87 84
70 76 78 77 77 81 84 87 92 96 99 99 97 97 101 100 89 74 60 42 24 18 22 25 28 41 58 67 65 60 60 63 67 74 83 87 86 86 85 80 73 65
79 82 81 83 87 91 92 94 97 100 100 99 98 99 102 98 88 75 57 36 22 21 24 23 25 39 60 71 71 70 70 69 69 71 71 68 65 61 58 54 47 41

ECMWFNIL_500_rhum_003.txt.gz
RH
11 9 9 14 18 24 30 34 33 30 25 22 21 22 23 23 21 20 23 28 33 36 36 32 26 21 23 33 42 43 36 24 14 10 12 13 13 14 15 16 16 16
10 12 17 20 24 29 32 31 27 23 19 18 20 21 22 23 24 27 32 38 44 49 52 53 51 46 41 40 43 47 47 42 30 18 14 14 11 10 10 13 16 18
18 20 22 23 27 29 27 25 21 18 19 23 26 28 31 33 35 36 41 52 62 68 72 75 74 73 70 62 56 54 53 50 45 37 31 27 20 13 6 5 10 14
24 23 24 26 27 24 21 21 22 26 32 35 36 39 45 50 53 54 58 69 79 85 88 86 83 84 87 82 72 66 59 53 52 53 52 49 46 39 28 15 8 10
25 26 26 25 21 19 23 30 37 43 45 44 46 53 64 74 83 84 83 87 93 95 93 87 86 90 94 94 88 82 76 65 58 58 63 66 65 63 59 46 28 18
27 27 24 22 22 28 37 41 42 43 45 50 60 69 80 91 96 91 83 84 89 95 96 93 95 99 99 100 99 96 95 87 75 71 73 77 78 76 75 68 55 39
27 25 23 22 28 42 45 37 33 40 50 62 74 84 95 100 95 86 80 81 84 89 93 92 93 95 93 94 95 96 98 95 88 83 78 77 80 83 82 77 72 63
23 24 23 23 38 53 49 36 39 53 65 74 77 81 93 93 82 76 75 74 75 79 83 81 81 83 82 83 85 87 89 89 89 88 82 76 74 78 83 78 73 74
25 24 22 30 46 51 41 38 51 69 83 89 81 75 81 76 63 60 62 59 60 68 75 74 71 73 74 73 71 70 71 72 75 78 77 73 67 66 74 78 73 74
23 21 25 38 43 33 26 33 49 65 78 80 71 67 68 56 44 44 47 49 52 55 54 50 52 62 69 70 67 68 70 71 71 69 66 61 57 55 63 76 79 78
24 24 32 41 35 24 23 29 38 45 51 52 53 59 57 47 42 44 46 51 54 50 42 32 31 44 54 54 52 55 60 63 63 60 54 47 45 49 58 72 84 88
33 33 40 39 31 28 30 32 34 36 37 39 48 56 54 50 51 52 51 53 54 54 52 41 29 28 30 27 25 25 27 32 38 44 49 45 43 55 66 74 85 94
34 38 44 39 34 35 35 34 34 35 38 41 49 58 61 60 63 64 60 56 57 60 59 53 41 29 22 18 17 16 16 19 24 37 49 49 51 68 81 86 93 97
32 39 42 36 35 38 39 41 41 42 47 53 60 66 68 68 70 74 72 68 69 69 63 57 50 38 28 20 16 15 15 14 17 26 38 44 54 71 83 92 99 99
32 36 36 34 38 41 44 49 50 52 56 61 66 67 65 68 71 73 75 75 78 80 76 71 63 52 41 29 19 17 15 13 14 19 26 37 50 64 76 89 98 99
30 31 33 36 41 44 46 48 51 55 58 62 67 67 66 70 74 75 77 78 82 87 87 85 77 64 51 39 25 17 15 14 15 19 26 34 43 52 66 85 98 100
30 33 37 41 45 49 51 52 53 56 59 62 65 67 68 70 72 76 80 81 87 93 90 86 81 66 52 45 33 19 14 15 18 24 30 34 39 45 54 72 92 99
35 38 42 46 51 56 59 61 61 62 65 68 69 70 70 70 73 79 83 84 91 96 92 87 84 72 55 45 36 23 13 13 20 29 35 35 37 40 43 58 82 97
42 45 49 52 55 58 61 65 67 69 72 75 77 79 77 77 80 82 85 89 92 92 89 86 89 84 66 50 40 26 13 13 23 36 42 41 37 34 36 53 79 95
40 46 52 56 55 58 64 67 69 74 76 77 81 85 85 86 86 84 86 91 90 87 84 84 88 87 73 59 46 28 15 15 22 31 39 41 39 33 34 53 78 93
41 48 55 58 58 61 67 70 71 75 75 78 84 88 88 89 90 88 87 87 87 86 82 82 86 84 77 69 52 28 17 15 15 20 28 34 37 36 40 57 75 81
54 57 60 61 63 67 69 71 74 75 74 78 86 88 87 88 89 89 88 85 86 86 84 86 91 90 85 75 51 25 17 17 14 16 22 28 35 39 43 55 65 68
58 60 60 62 67 72 73 73 74 75 76 81 87 87 85 85 86 89 90 87 85 88 91 95 99 96 87 70 44 24 19 19 18 21 26 32 41 45 45 50 61 71
62 64 63 65 70 74 74 73 75 78 80 83 87 87 85 83 84 89 91 88 88 93 97 98 100 97 82 57 35 25 23 22 24 30 36 40 48 55 56 59 67 73
69 68 65 68 74 76 73 74 79 84 85 86 87 85 80 77 81 88 93 94 96 99 98 98 101 93 69 43 30 27 27 29 35 42 46 49 56 64 67 67 66 60
72 71 70 73 79 80 75 73 79 85 87 86 83 80 78 79 85 93 97 97 99 100 99 99 95 78 52 34 29 29 30 35 44 50 50 50 54 57 54 48 42 34

ECMWFNIL_500_rhum_006.txt.gz
RH
14 13 12 12 13 13 12 12 14 15 18 20 17 15 23 41 66 82 84 81 75 70 69 71 71 72 80 84 78 78 81 83 87 87 72 55 47 43 33 21 15 15
26 24 21 18 16 14 13 14 13 14 15 16 19 28 41 56 73 85 85 76 68 65 64 69 75 73 72 75 75 76 82 84 85 85 78 67 58 51 43 34 28 25
35 31 26 22 18 16 15 12 10 13 17 23 35 48 57 66 80 86 74 60 58 61 61 66 76 80 77 79 82 82 82 83 83 80 76 75 74 70 60 47 40 41
40 33 27 24 20 16 12 7 12 19 24 35 51 63 67 69 77 74 55 45 50 56 61 67 73 78 78 76 77 79 79 80 80 76 73 75 80 84 83 72 59 56
39 31 26 23 17 11 7 11 24 32 34 44 60 72 70 60 61 62 46 36 41 46 51 55 53 51 48 48 58 71 77 77 76 74 73 75 80 87 94 93 84 74
33 26 20 14 9 7 12 26 37 37 38 51 65 72 64 48 49 55 43 31 34 38 40 40 37 34 31 31 40 52 60 61 59 56 54 55 60 68 76 84 89 86
22 16 9 6 8 11 22 35 34 28 33 46 54 54 47 40 42 45 39 33 33 36 38 39 39 37 34 34 35 34 34 32 28 25 24 24 27 33 42 52 65 75
11 7 5 8 12 17 27 32 26 23 28 32 35 39 40 41 42 42 39 36 35 37 39 39 42 42 39 39 40 38 34 27 22 19 17 16 16 16 20 27 39 49
6 6 9 12 16 21 28 30 27 27 28 29 34 41 43 45 48 50 45 38 36 38 38 38 40 43 43 42 41 40 38 32 27 22 19 18 17 16 16 19 28 37
11 15 19 22 25 29 31 31 32 32 32 34 39 42 43 44 52 56 49 40 39 38 38 39 41 44 48 51 49 46 41 35 30 27 24 21 18 17 16 18 25 34
20 26 30 30 30 33 34 35 36 35 36 38 39 40 41 41 49 54 46 41 41 40 40 41 42 47 55 59 60 59 54 45 37 32 31 27 19 16 17 19 26 35
22 24 29 28 27 31 35 35 36 36 37 39 40 43 42 39 44 47 42 41 43 43 43 43 45 51 60 64 65 67 69 65 53 41 37 34 24 15 14 17 25 35
21 23 26 24 24 30 31 32 35 37 40 43 43 45 45 43 44 44 45 49 50 48 48 50 52 57 63 67 65 66 72 76 70 54 42 37 29 17 13 17 26 33
23 26 26 24 25 28 32 38 45 48 51 53 53 51 51 52 51 50 53 55 55 56 56 56 58 62 67 69 66 66 72 77 77 66 49 40 33 20 12 18 29 33
24 27 28 28 30 34 40 49 56 59 60 62 61 58 57 59 58 54 54 56 58 63 63 61 61 64 71 76 71 69 73 78 82 77 62 48 37 24 15 17 26 29
24 27 30 32 36 43 49 53 58 60 61 62 61 58 57 58 57 55 56 58 63 69 71 72 73 72 76 81 80 77 77 80 86 87 77 62 46 29 17 15 18 19
27 29 33 37 43 49 51 53 55 55 57 60 59 58 57 53 51 58 66 68 70 75 78 81 83 82 81 81 83 84 83 84 88 88 84 74 54 32 18 14 14 13
27 30 34 39 43 45 48 54 56 55 58 61 62 62 59 54 54 64 73 76 78 82 84 84 84 84 81 78 80 85 88 91 90 86 84 76 54 30 19 15 14 14
25 26 29 35 42 47 52 56 56 56 58 63 65 65 61 60 64 69 73 78 83 86 86 84 83 84 81 77 80 87 94 96 90 84 82 72 47 27 20 17 17 16
25 27 30 40 49 54 55 56 56 58 61 64 67 66 64 65 68 71 76 81 82 86 88 84 82 87 89 87 87 91 95 95 89 85 79 62 40 27 23 21 19 18
30 37 41 48 54 55 56 58 61 63 62 63 67 66 64 64 66 70 78 81 80 87 91 84 80 88 94 90 87 88 90 89 87 83 70 52 37 30 27 23 22 23
38 45 47 51 54 56 59 62 63 66 65 65 68 69 68 68 71 75 83 86 85 85 84 81 81 88 89 80 77 84 89 86 80 71 57 44 36 32 28 23 25 34
44 48 50 53 57 60 64 66 64 67 70 71 73 76 76 76 77 79 81 84 84 80 81 81 77 77 80 77 78 85 82 71 62 52 44 39 33 29 27 23 28 41
47 51 55 59 62 65 69 70 68 69 74 79 82 85 86 83 81 78 75 77 80 81 82 77 65 64 75 80 77 70 58 47 43 39 34 32 28 26 26 24 28 37
51 54 59 63 66 68 69 69 71 73 76 80 85 88 87 86 86 84 82 83 85 83 79 69 59 62 71 70 59 48 40 36 35 32 29 27 25 26 27 27 29 33
55 58 62 65 67 66 65 67 71 72 73 77 84 88 86 86 88 89 89 88 84 80 77 66 58 62 62 54 46 42 38 36 34 31 29 28 28 30 31 32 34 34

ECMWFNIL_500_rhum_009.txt.gz
RH
13 12 13 15 17 18 18 18 16 14 14 19 24 28 37 46 56 72 71 50 37 37 38 42 45 46 47 45 47 54 58 58 56 53 49 46 50 55 61 67 72 75
28 24 23 25 28 28 26 21 16 14 18 24 31 39 50 57 60 63 58 42 35 35 34 38 40 39 36 32 33 37 37 36 33 30 27 23 22 24 27 34 41 49
40 38 36 37 38 35 28 19 14 17 26 32 35 41 57 65 57 49 47 39 31 29 32 34 35 37 37 35 35 35 32 31 31 32 31 28 24 20 18 17 18 20
34 36 38 41 41 36 24 14 17 27 35 36 32 38 58 66 51 38 36 31 25 27 31 34 36 40 43 43 43 41 40 39 40 41 42 40 36 32 29 24 19 17
23 25 30 39 41 30 16 15 28 38 38 36 35 43 57 56 39 27 25 23 24 28 32 35 37 41 45 47 47 47 45 44 44 44 45 44 42 40 39 35 28 22
15 18 26 36 33 19 14 26 37 36 31 31 34 40 42 35 25 22 22 24 27 28 30 35 37 39 44 47 50 52 52 52 52 50 47 46 44 42 41 39 34 27
13 20 29 31 22 14 22 35 36 27 24 26 27 27 27 23 20 20 23 27 29 30 32 36 41 43 45 47 51 56 60 62 62 62 60 57 55 51 47 44 39 32
12 20 25 20 15 19 30 36 31 25 24 23 22 21 22 20 19 21 27 32 33 34 36 41 47 52 53 52 52 55 59 62 63 66 68 67 66 63 58 53 47 40
10 14 15 15 17 26 33 33 29 27 25 24 23 23 22 21 22 28 35 37 35 36 42 48 51 54 57 58 56 54 55 57 58 62 67 69 70 68 66 64 61 53
10 11 12 16 24 31 34 34 32 29 26 25 26 27 27 26 28 33 37 38 39 44 49 51 53 56 59 60 58 54 52 54 56 58 63 67 70 70 69 69 69 63
12 14 18 24 33 38 37 36 33 30 28 29 30 30 29 29 29 32 34 37 43 49 51 52 55 59 62 62 59 55 52 53 55 56 59 63 66 68 67 66 66 65
15 21 26 31 38 40 37 36 33 31 31 32 32 31 29 29 30 31 33 36 41 47 51 54 57 58 60 60 58 56 52 50 52 56 59 63 65 65 64 63 65 67
19 27 30 30 35 37 36 35 34 35 38 37 35 36 37 37 37 35 34 35 40 48 53 55 55 53 52 53 54 55 52 50 52 57 61 64 65 65 62 61 62 66
24 28 29 28 31 35 37 37 39 41 43 42 41 44 48 48 47 45 41 39 43 51 58 59 56 53 52 55 59 59 55 51 52 56 61 63 62 61 58 58 59 62
26 27 30 30 29 34 40 42 45 47 47 48 48 50 53 54 54 53 51 49 47 52 59 59 55 54 59 65 64 59 54 53 54 57 60 60 60 59 60 61 61 63
25 25 30 29 27 33 41 44 47 49 51 54 52 51 54 56 56 57 59 58 53 53 57 57 54 56 65 71 65 57 54 53 55 60 61 58 57 59 63 65 64 65
22 24 28 28 27 32 38 44 46 48 53 56 53 52 55 57 58 61 63 63 59 57 57 58 59 60 66 71 65 56 52 51 54 62 62 58 59 61 62 62 61 62
19 23 28 29 29 33 39 44 46 48 53 54 52 52 53 57 63 63 61 60 60 59 57 60 65 63 61 67 67 61 61 65 67 66 60 57 61 62 59 55 53 54
17 22 28 29 30 34 39 43 45 49 51 50 50 50 50 56 60 54 51 54 55 55 55 59 66 62 57 65 68 62 66 73 72 66 60 58 58 54 48 45 43 43
17 20 25 28 29 31 35 40 45 47 48 49 49 48 49 52 52 50 57 61 59 57 57 59 61 56 52 59 61 59 66 72 66 59 54 51 46 40 36 35 33 32
15 18 21 24 26 29 33 39 43 44 47 51 50 49 52 53 55 62 70 69 64 63 64 66 67 61 59 65 64 60 66 68 59 52 49 45 39 34 32 30 28 27
13 15 18 21 24 27 32 38 41 44 50 54 53 54 58 59 63 70 71 70 71 73 74 77 77 72 75 81 71 56 53 53 49 49 50 46 41 37 33 31 29 28
12 14 16 20 24 29 34 40 43 48 54 55 55 57 59 60 63 67 70 74 76 76 79 83 83 82 85 84 71 56 51 49 45 48 53 50 45 41 37 34 34 33
11 14 17 21 26 31 37 43 48 51 55 57 57 57 56 55 57 60 67 71 69 72 80 81 80 82 79 71 63 59 59 54 47 48 54 52 47 45 43 41 40 38
16 15 19 24 31 38 44 48 52 55 57 60 60 56 53 54 56 60 68 70 68 73 77 71 70 74 71 64 59 59 61 57 48 48 53 51 49 48 46 43 41 38
26 20 23 33 44 52 57 58 58 60 62 63 61 57 56 56 58 65 71 70 71 75 69 64 71 78 73 64 56 55 59 55 46 46 49 47 45 44 41 39 37 36

ECMWFNIL_500_rhum_012.txt.gz
RH
31 27 19 11 8 6 5 6 11 16 18 16 13 12 16 25 36 48 60 58 43 34 31 28 29 29 29 28 27 29 30 30 32 35 36 37 36 32 29 28 28 27
35 35 33 24 14 8 8 15 21 22 20 16 12 13 20 33 46 51 52 49 41 33 26 25 26 27 29 32 31 32 34 36 39 42 44 45 44 42 38 34 31 29
37 39 40 37 30 23 24 30 30 25 21 15 12 15 24 40 53 52 43 38 32 26 21 22 25 27 30 32 33 35 37 39 43 47 50 50 48 46 44 40 34 29
35 36 37 38 38 37 39 40 33 26 20 12 13 21 28 41 52 48 35 26 21 19 19 21 24 27 29 29 32 37 40 42 44 48 51 52 50 49 48 44 38 30
32 29 28 28 29 36 44 42 32 24 15 11 20 30 34 40 43 36 25 18 16 19 21 24 26 26 27 29 31 35 40 43 44 47 49 50 51 52 52 51 47 40
27 22 19 15 18 32 43 38 28 18 11 16 28 32 32 33 29 23 18 16 18 22 24 27 27 26 26 29 32 36 39 42 44 45 46 47 48 48 49 50 50 49
19 13 9 9 18 34 40 32 19 12 13 22 27 25 23 23 20 17 15 16 21 24 25 26 26 27 28 30 33 36 38 41 43 44 45 44 44 44 45 45 44 45
11 7 8 14 25 34 32 21 12 12 19 24 23 21 21 19 17 15 15 19 25 24 24 25 25 28 33 36 38 38 39 40 40 41 43 43 45 46 47 45 42 40
6 7 14 20 24 25 19 12 12 18 22 23 22 21 20 19 18 17 19 24 27 25 25 27 29 35 41 44 44 41 39 39 38 39 42 45 48 52 52 49 43 40
5 10 16 18 16 14 11 11 16 21 23 24 24 22 19 20 22 24 29 32 32 31 32 33 37 43 47 48 45 39 38 37 37 41 46 46 48 52 55 53 50 45
6 10 14 12 10 10 11 15 19 23 27 27 23 19 18 21 26 31 37 38 37 37 35 36 42 46 49 48 42 44 49 44 41 48 53 50 46 47 51 53 54 53
9 10 11 9 9 12 14 18 23 27 30 26 19 18 21 25 30 35 39 38 37 36 34 37 43 45 47 43 39 52 63 56 51 58 62 61 56 51 52 54 53 53
12 10 10 10 11 15 18 22 28 31 28 22 19 23 28 33 38 41 42 38 34 34 36 40 43 43 43 41 41 51 55 50 54 62 64 65 66 67 67 62 54 51
16 13 10 12 15 18 22 26 30 30 25 23 25 30 34 37 40 43 44 40 35 37 44 48 48 46 45 45 44 46 44 42 51 59 60 61 64 73 75 64 54 52
16 16 13 14 19 23 25 27 29 28 26 27 31 36 38 40 41 46 49 44 38 43 51 53 53 52 51 52 52 54 55 55 59 61 61 60 61 68 71 59 50 47
14 17 16 17 22 24 25 27 29 29 29 33 40 44 46 47 50 56 59 54 50 53 56 56 58 58 60 62 62 66 71 76 78 71 63 61 63 66 66 56 45 40
13 15 17 20 26 26 24 28 31 32 35 43 52 58 59 57 58 62 65 62 62 67 66 66 68 67 65 65 66 76 85 87 86 77 65 64 65 63 60 53 45 40
15 15 19 23 27 28 28 32 35 38 44 51 60 67 69 64 61 63 64 64 67 71 73 74 72 69 66 67 75 87 87 81 83 83 74 67 64 60 55 49 46 45
18 16 22 27 29 30 32 36 41 45 50 57 64 70 71 67 64 64 66 67 69 71 73 73 71 69 69 74 85 84 69 62 73 80 75 68 63 60 54 47 46 47
21 18 25 31 32 33 35 37 44 50 54 60 67 69 68 66 66 67 69 70 69 69 69 69 70 72 75 81 87 77 58 52 59 66 74 74 65 59 55 49 46 47
25 21 27 34 36 36 36 37 44 50 54 59 64 64 63 65 66 67 68 69 69 67 67 69 72 77 82 87 89 77 60 53 55 63 75 74 61 56 57 52 47 45
30 23 24 34 40 38 36 36 40 44 49 56 60 58 60 64 66 68 68 68 67 67 68 72 77 84 89 90 86 74 61 56 59 63 64 58 50 52 56 52 44 40
35 28 24 29 36 37 35 35 37 40 46 53 54 54 59 63 65 69 69 65 65 68 72 74 80 87 90 83 73 65 58 55 57 57 51 45 43 45 50 48 41 35
40 37 31 26 26 30 31 33 36 40 45 50 51 53 58 62 65 67 67 64 66 71 72 72 79 88 87 75 63 61 60 57 53 50 47 45 43 45 47 44 35 29
50 47 42 33 26 25 28 32 37 42 46 50 53 55 58 60 63 65 64 64 68 73 73 72 77 85 86 78 70 68 67 65 62 57 51 46 46 47 45 38 30 27
58 56 53 45 33 25 24 30 38 45 51 54 57 58 58 60 64 64 63 65 70 75 74 72 76 83 85 81 77 75 74 75 74 65 51 44 46 46 39 33 30 28

ECMWFNIL_500_rhum_015.txt.gz
RH
35 34 30 25 20 14 9 7 8 11 11 9 10 15 17 16 15 17 31 51 57 49 42 38 32 29 28 28 31 36 41 44 44 44 43 41 39 38 39 41 41 43
37 38 35 33 28 19 11 8 10 14 15 15 20 23 21 17 15 22 41 54 52 46 42 38 32 28 28 28 31 36 40 42 42 41 40 37 36 35 35 38 40 43
39 41 40 38 34 27 20 16 15 16 19 23 28 28 24 17 16 32 51 54 47 43 39 34 29 27 28 28 30 32 33 34 35 36 35 34 33 32 32 33 35 36
40 43 43 42 40 37 34 31 25 21 25 31 32 32 26 16 21 42 57 55 49 43 36 31 28 27 28 28 29 30 31 34 37 38 37 37 35 35 34 33 32 33
41 43 43 42 43 43 41 41 35 29 33 35 34 34 25 16 26 48 58 54 48 42 35 31 29 28 29 29 31 33 35 39 42 42 41 41 40 40 40 41 41 40
38 40 41 40 41 41 41 42 40 38 39 38 36 33 23 18 31 51 57 50 43 37 34 34 33 31 31 30 31 33 37 42 43 42 43 42 43 44 45 46 47 50
34 35 36 37 36 37 39 40 40 41 42 40 36 28 21 24 38 53 56 46 36 34 35 37 36 33 31 29 30 37 42 44 43 43 44 47 51 54 52 50 50 56
31 29 29 29 29 32 34 35 38 42 44 41 34 25 23 30 42 52 51 39 32 34 36 37 34 30 28 28 32 41 44 43 44 44 46 49 54 57 59 61 61 64
29 25 22 20 22 25 29 33 37 43 46 41 31 23 25 33 41 47 44 34 32 36 36 35 32 28 27 28 35 42 41 39 40 41 41 42 45 49 56 63 65 68
30 23 17 15 16 20 27 37 43 46 45 37 26 24 29 32 37 40 37 33 35 36 33 31 29 29 31 34 38 40 37 36 40 39 38 38 37 41 51 59 63 67
32 22 15 12 14 20 33 46 52 49 41 30 24 27 29 28 32 35 35 37 38 33 29 29 31 34 36 37 39 40 40 44 49 49 48 48 43 40 46 54 58 64
35 25 18 15 17 29 45 54 55 48 35 26 26 29 29 28 30 34 38 40 36 30 32 36 37 36 37 38 41 45 49 53 53 52 56 59 56 51 49 50 55 61
41 32 26 20 21 36 51 52 47 37 27 26 30 31 30 30 31 35 40 39 33 35 40 41 38 38 40 42 44 48 53 55 51 51 58 62 62 62 61 57 56 59
49 42 34 26 23 32 43 41 33 25 22 30 34 32 31 32 32 36 39 37 37 43 46 43 43 45 44 42 43 48 54 55 55 60 70 77 76 75 76 74 69 64
53 48 40 32 25 26 30 30 23 18 25 34 35 33 33 32 33 37 41 44 50 51 48 47 48 46 43 42 47 55 58 58 65 75 81 85 85 84 87 89 82 70
52 48 43 36 30 26 25 24 18 17 28 37 36 35 32 30 35 44 51 57 56 51 48 49 47 45 46 50 56 60 58 60 72 82 81 79 82 88 89 86 79 69
54 51 47 42 38 31 26 24 18 18 29 37 37 36 31 28 38 50 56 57 51 43 42 42 42 43 48 53 56 54 54 64 73 74 74 79 85 87 83 79 77 71
62 59 53 48 45 38 31 26 21 20 28 34 37 37 31 30 41 50 51 49 45 42 43 42 42 44 48 52 53 48 49 63 73 69 71 83 87 83 79 79 76 64
67 64 58 52 49 46 38 30 24 22 24 30 36 37 34 36 43 46 46 47 48 49 49 48 47 47 49 51 50 45 40 50 67 73 74 81 85 80 77 76 67 52
70 68 63 57 52 49 44 35 28 23 23 29 37 37 34 37 45 48 49 52 53 52 51 51 50 49 50 50 48 43 32 31 51 69 74 81 87 83 80 75 60 45
73 71 67 62 56 51 48 40 32 26 23 26 35 38 34 37 46 53 56 57 56 54 53 54 54 53 52 51 48 40 27 22 39 62 77 86 88 82 80 76 59 43
75 75 70 62 56 52 50 45 36 29 25 26 33 38 35 37 45 52 58 60 59 59 58 57 57 55 53 53 49 37 26 25 37 59 78 82 76 70 69 64 52 41
77 77 70 62 57 53 53 51 41 31 28 28 32 37 36 36 44 53 61 63 61 61 61 60 60 57 54 55 50 34 25 29 41 61 76 72 64 63 60 53 49 43
78 77 69 61 59 59 57 55 46 36 32 32 33 37 38 38 46 56 63 62 60 61 63 63 63 59 55 57 51 32 24 34 50 68 78 70 61 60 57 53 53 48
75 75 68 60 61 66 64 59 52 42 35 35 37 39 40 43 49 56 58 59 61 61 62 65 65 60 60 65 57 35 25 33 47 63 72 69 62 56 52 53 54 50
74 74 68 59 62 71 69 62 60 54 43 38 40 42 42 44 47 51 53 59 65 64 60 63 66 62 66 73 62 40 30 33 43 55 63 64 61 52 49 51 51 51

ECMWFNIL_500_rhum_021.txt.gz
RH
12 14 13 10 9 8 6 6 5 5 5 6 7 7 7 8 9 10 13 19 25 24 15 11 19 24 18 15 15 17 19 22 25 31 34 36 37 37 37 39 41 43
23 25 25 23 19 14 11 10 9 7 7 7 9 9 8 8 9 10 13 19 26 28 20 12 16 22 19 14 15 17 19 23 28 33 37 40 40 39 42 46 48 47
29 31 34 34 31 27 23 21 17 14 11 10 10 11 10 9 9 10 12 18 26 30 25 15 14 20 20 14 14 17 20 24 28 35 41 42 41 42 44 45 45 45
33 34 36 37 37 36 35 32 27 22 19 16 15 16 16 13 10 10 11 16 26 32 29 19 13 19 21 15 13 17 21 24 28 37 43 42 42 44 42 39 39 41
40 38 37 38 40 40 39 38 35 32 28 25 24 24 24 20 15 12 10 13 25 34 33 22 14 17 22 17 13 16 21 23 27 37 43 42 43 42 37 38 43 46
48 44 40 40 41 42 43 43 42 40 37 34 33 33 32 29 24 19 13 13 23 34 35 26 15 17 23 20 14 15 20 23 26 34 42 44 43 39 38 43 48 51
54 49 44 41 41 42 46 48 47 46 44 42 41 40 38 36 32 28 25 21 26 35 37 28 17 18 25 23 17 16 19 22 25 31 40 45 41 38 41 45 47 54
58 51 45 40 38 39 44 49 50 49 48 46 44 43 41 39 37 35 35 32 32 36 38 29 18 18 27 28 21 17 18 23 25 28 36 42 41 41 45 46 46 54
61 53 45 39 36 37 39 43 46 47 47 46 45 44 42 40 38 37 38 38 37 38 38 30 19 19 29 33 26 19 19 23 26 29 35 40 41 44 48 49 51 54
62 53 44 39 38 38 37 36 36 37 37 38 38 39 39 39 37 37 38 38 38 39 37 30 20 21 31 36 29 21 19 23 26 29 35 39 40 46 51 52 55 56
60 51 42 40 40 40 39 36 33 30 27 26 25 25 27 29 30 32 33 35 37 39 38 31 22 23 31 35 30 22 20 24 27 30 34 36 38 43 48 51 55 56
56 48 43 44 46 45 44 40 32 26 20 16 14 13 14 15 17 21 25 30 36 39 38 31 24 23 28 31 29 23 22 25 28 32 34 35 37 39 41 46 52 54
54 47 46 49 51 51 48 42 35 28 23 20 18 16 15 14 16 19 22 26 32 38 38 31 24 23 25 27 26 23 23 26 30 33 35 38 41 40 38 42 46 52
53 48 49 54 57 56 50 45 42 38 34 33 33 32 28 22 19 22 27 30 31 34 36 29 22 21 22 24 26 25 25 28 31 34 37 41 45 43 38 37 41 52
53 50 53 59 62 58 52 50 49 46 45 47 48 48 45 37 27 22 24 30 32 33 33 26 19 18 21 27 29 28 28 29 32 36 39 43 47 44 38 34 38 48
51 52 56 60 62 59 57 57 57 55 55 57 56 55 55 52 43 29 20 22 27 32 30 23 17 17 23 29 31 30 30 30 33 39 43 47 48 44 38 35 36 42
53 55 58 60 60 59 58 60 63 64 64 64 62 60 59 58 52 39 27 20 19 23 25 21 17 19 24 28 30 30 30 31 33 39 44 48 48 43 39 36 34 37
57 59 60 60 59 57 57 59 63 67 67 66 65 64 63 62 58 47 36 28 20 17 18 17 17 20 24 27 29 29 28 30 33 36 42 47 47 41 37 36 36 37
61 59 58 57 55 54 54 55 59 64 68 68 68 67 66 66 63 53 42 35 27 21 18 16 18 21 24 27 29 29 27 29 33 36 39 43 43 38 35 35 38 39
66 60 57 55 54 53 53 54 58 65 70 71 70 70 68 68 66 57 45 37 32 27 23 20 19 21 24 28 30 30 28 29 33 37 37 36 37 37 36 36 39 42
73 68 63 59 57 55 54 56 61 66 69 70 71 70 69 69 67 59 48 40 36 32 28 26 23 22 24 29 32 32 30 30 33 37 36 33 34 36 38 39 41 42
74 73 70 66 62 60 59 59 61 63 64 64 65 66 67 69 69 63 54 46 40 36 32 30 29 26 25 29 33 35 33 33 35 38 38 35 34 35 39 41 43 45
67 69 72 72 71 68 67 65 65 66 65 64 63 63 65 69 71 68 62 54 47 41 37 35 34 31 29 30 34 36 37 36 37 39 40 39 37 36 39 42 47 51
62 65 69 74 77 77 75 71 70 69 69 70 69 65 65 68 69 69 66 61 56 50 45 42 39 35 34 33 35 37 39 40 41 42 43 43 40 38 39 45 52 57
63 65 68 73 75 76 76 74 73 73 74 75 73 68 68 68 67 67 67 65 63 59 54 48 43 40 40 37 35 37 40 41 42 42 43 44 43 42 43 48 55 59
66 67 71 75 75 74 74 73 72 74 76 75 69 62 63 66 66 66 66 65 64 63 61 56 51 48 49 48 41 37 38 42 43 43 44 46 47 44 45 50 55 59

ECMWFNIL_500_rhum_024.txt.gz
RH
3 3 4 3 4 4 4 4 4 4 3 3 4 5 7 8 7 7 9 12 15 20 25 25 18 14 18 23 21 15 13 16 18 19 22 25 28 29 31 34 36 37
4 4 5 5 5 4 5 6 6 5 5 4 4 5 7 8 7 7 10 12 14 17 23 28 24 16 16 22 24 18 14 16 18 20 23 26 28 30 32 33 37 41
5 6 7 9 10 10 10 11 11 10 9 7 6 5 7 9 8 8 9 12 13 14 19 27 29 22 16 19 25 21 15 15 17 20 24 27 28 32 32 33 40 46
7 10 13 16 19 21 22 22 21 20 18 15 13 11 10 10 10 10 10 12 14 14 17 24 31 29 19 17 25 25 17 15 17 19 23 26 27 30 32 33 41 46
14 17 20 23 26 28 30 31 31 30 29 27 25 22 20 17 15 14 13 15 18 18 17 20 29 32 25 18 23 29 22 15 17 19 22 25 27 29 31 32 39 43
24 27 30 32 33 33 33 34 35 36 35 35 33 31 30 28 24 20 18 20 23 25 23 22 26 32 30 21 20 28 27 18 17 19 20 24 26 28 30 31 36 39
35 38 41 42 41 40 39 37 36 37 38 38 38 37 36 35 33 29 27 27 29 31 30 26 27 31 33 27 19 25 31 24 17 18 20 21 23 26 28 31 34 37
40 43 46 47 47 45 42 40 37 36 36 36 38 41 40 39 40 38 35 34 34 35 35 32 31 32 35 31 22 21 31 30 20 18 20 20 21 24 27 31 35 38
43 45 48 50 51 50 45 41 38 36 35 35 37 41 43 43 44 43 41 40 38 37 37 36 35 35 36 35 26 20 27 34 25 18 20 21 21 22 25 30 36 41
47 49 50 53 55 54 48 42 38 36 35 35 37 38 41 43 44 44 43 42 40 38 37 37 36 37 37 36 30 21 24 33 29 20 19 21 20 20 23 30 37 42
52 53 53 57 60 57 50 43 39 36 34 33 33 34 34 33 32 33 33 33 34 34 33 33 33 35 36 37 33 24 21 28 29 23 20 21 21 20 22 29 37 42
56 57 56 61 63 57 49 43 38 35 33 32 30 28 25 21 18 17 17 18 20 22 24 26 29 30 31 34 34 27 21 24 27 25 22 22 22 21 21 27 35 41
59 59 60 64 64 55 46 42 38 34 33 31 27 22 19 17 16 14 12 13 14 16 18 20 22 24 26 30 33 29 22 21 25 27 23 22 22 21 20 24 30 35
60 59 60 62 61 54 46 43 40 38 35 31 25 22 24 27 27 26 22 18 16 18 21 22 21 19 20 25 31 29 23 21 24 27 24 21 21 21 21 23 27 30
57 56 57 59 58 53 48 45 44 42 36 29 26 29 34 39 43 41 35 28 23 22 23 24 24 22 22 27 31 30 24 21 24 27 25 21 19 20 20 23 27 28
53 52 54 57 57 53 48 46 48 46 37 29 29 33 39 47 53 51 45 39 34 27 22 19 19 20 24 30 33 31 25 21 22 26 26 22 20 19 19 23 27 28
50 49 50 52 53 51 48 49 51 49 41 33 31 36 45 53 56 55 53 50 42 32 25 20 16 16 19 23 26 26 23 21 21 25 26 24 21 19 19 21 26 28
48 47 47 48 48 48 49 52 53 52 46 39 37 44 53 56 55 56 58 57 49 40 32 25 21 19 16 15 15 17 18 19 20 23 25 25 23 22 20 20 23 27
47 47 48 48 48 49 51 53 54 54 52 49 51 57 59 58 58 58 60 61 58 50 41 32 27 24 20 15 13 12 14 16 18 21 24 25 26 25 24 22 23 26
46 46 48 50 52 53 53 54 56 57 57 57 61 64 63 63 66 65 64 64 62 55 46 38 32 30 30 24 18 15 14 14 15 18 23 26 27 28 27 26 25 27
49 50 51 52 53 54 53 53 56 58 60 62 65 67 69 71 72 70 67 65 63 58 51 43 37 37 40 39 33 25 19 16 15 16 20 25 27 29 29 29 28 29
57 60 59 54 52 54 55 54 54 56 59 63 65 67 70 71 71 71 70 68 66 61 54 47 42 40 42 48 51 44 30 22 19 17 19 22 25 28 31 31 31 31
63 67 67 61 52 50 52 53 55 58 59 61 63 64 66 68 69 71 72 70 67 62 55 51 47 44 41 45 54 58 48 34 27 24 22 22 24 27 30 32 32 32
64 67 68 64 54 48 49 52 54 58 61 63 64 64 64 65 67 69 70 69 67 64 61 59 56 52 47 43 48 57 56 47 40 36 31 28 28 28 28 31 32 32
61 62 61 56 49 45 48 53 57 60 64 67 66 63 62 63 64 65 67 68 67 66 66 66 64 62 58 53 50 53 55 53 49 46 41 38 39 39 36 34 33 34
58 59 57 53 48 44 45 53 62 65 65 66 63 58 55 57 60 62 65 66 63 59 57 57 60 63 65 64 61 57 56 56 54 51 48 48 51 53 50 46 42 39

ECMWFNIL_500_rhum_030.txt.gz
RH
2 2 2 2 2 3 4 5 6 7 9 10 10 10 10 10 11 11 11 11 11 12 13 15 18 21 23 23 21 16 13 11 10 12 17 21 23 22 22 28 32 33
2 2 2 2 3 3 4 6 7 8 9 11 11 11 11 11 12 12 12 13 13 14 14 15 18 19 20 23 24 22 17 13 10 10 13 19 24 25 23 25 28 30
3 3 3 3 4 5 6 7 7 7 8 10 11 12 13 13 13 13 14 15 15 15 16 17 18 19 20 21 24 26 24 18 13 10 10 14 20 25 26 24 25 27
3 3 3 4 5 6 7 7 6 6 6 7 9 10 12 13 13 14 14 13 14 15 16 18 19 21 21 23 25 27 28 26 19 13 10 11 14 20 25 26 25 25
3 4 4 4 5 5 5 5 5 6 6 8 11 13 15 17 18 19 19 17 17 17 17 17 19 22 23 25 26 27 29 31 29 22 14 10 11 14 19 24 25 24
3 4 3 3 4 4 4 5 5 7 9 13 17 19 22 24 25 26 26 26 26 25 24 22 21 22 25 27 28 29 30 32 34 32 24 15 11 11 14 18 21 22
3 3 3 3 3 3 4 6 8 11 14 17 21 25 28 30 31 30 30 30 29 30 30 30 29 28 27 29 31 32 33 34 35 36 33 26 16 12 11 13 16 19
3 3 3 3 3 5 9 13 16 19 22 26 31 36 38 38 37 34 32 30 29 29 30 32 33 33 33 34 35 35 36 36 36 37 36 33 26 17 13 12 13 16
3 2 3 4 7 13 18 23 26 27 30 34 38 41 44 44 41 38 36 34 33 31 31 32 33 35 35 37 38 38 38 38 38 37 36 36 33 25 18 14 13 14
4 5 8 12 16 21 26 29 31 32 34 37 39 41 45 46 44 42 39 36 33 32 31 31 32 34 34 36 38 39 39 38 38 37 36 35 35 32 25 19 16 14
11 15 19 21 24 27 30 34 35 37 38 38 38 40 45 46 44 41 37 32 29 27 26 26 27 29 32 33 35 38 39 38 36 35 34 33 33 34 30 24 19 17
21 25 27 29 31 33 35 38 39 40 41 41 40 40 42 44 41 37 32 29 27 24 21 20 19 20 23 25 26 28 29 29 27 25 25 26 28 31 32 29 23 19
25 28 31 34 36 36 37 39 41 44 45 45 43 41 42 43 40 35 31 28 26 22 18 16 14 13 13 14 14 14 15 16 16 15 15 17 20 24 28 30 26 21
22 24 31 38 39 38 39 40 43 47 49 48 46 43 44 44 40 35 31 28 24 21 18 16 13 12 11 10 10 10 11 12 13 13 13 14 15 17 21 24 26 23
15 15 26 40 43 41 42 43 45 48 50 50 48 44 44 44 41 36 32 29 25 22 21 19 17 16 14 14 14 12 12 12 12 12 13 14 16 18 19 21 22 22
15 15 24 40 48 47 46 46 47 49 50 51 49 46 45 44 40 37 33 29 27 25 25 26 26 26 25 25 25 24 22 20 18 16 13 12 13 15 17 19 19 20
28 29 33 43 51 52 51 49 50 51 52 52 48 45 46 43 38 37 35 31 29 29 31 36 40 42 41 40 39 38 37 34 31 28 25 20 17 14 13 14 14 14
41 42 44 50 55 57 55 53 53 54 54 51 46 44 45 44 40 39 38 34 31 32 37 44 50 53 53 52 51 49 47 43 39 36 34 32 29 25 21 18 15 13
44 49 51 55 60 61 60 56 55 56 53 48 44 42 42 42 42 42 40 37 35 37 42 48 52 55 57 58 59 58 55 50 45 40 38 37 37 36 34 31 29 26
34 50 57 61 64 63 61 59 57 54 48 42 38 35 36 39 42 44 44 41 39 40 44 50 53 56 60 60 60 60 58 55 51 46 42 42 42 43 43 42 40 39
25 45 56 60 63 63 61 58 52 45 41 37 35 33 35 39 42 45 47 48 47 45 45 48 51 56 60 61 60 59 60 59 56 54 53 54 53 53 53 53 51 48
24 40 51 55 58 59 55 47 40 37 39 39 38 38 39 40 42 44 47 50 49 48 45 45 49 53 58 61 62 63 63 63 62 62 62 61 59 57 56 57 58 57
24 33 43 46 47 45 40 37 37 40 45 47 46 44 42 42 44 45 45 46 45 46 47 50 53 56 57 60 61 62 64 66 67 67 65 61 58 56 52 50 49 50
34 33 37 39 39 40 39 42 46 49 51 52 51 49 47 45 44 44 45 46 46 49 54 57 61 63 63 64 65 65 66 67 69 70 69 66 64 60 53 46 41 38
48 44 48 50 49 50 51 51 52 53 55 56 56 55 53 49 46 45 47 50 52 55 59 61 63 65 67 70 70 70 70 69 70 71 71 71 70 63 52 44 39 37
55 54 58 62 59 57 56 54 54 55 56 57 58 59 57 53 48 45 45 47 50 55 59 62 64 65 67 69 70 70 71 71 72 72 72 74 72 65 56 52 50 49

ECMWFNIL_500_rhum_033.txt.gz
RH
2 2 3 3 3 3 3 3 5 6 7 8 9 9 9 10 11 12 13 13 13 14 14 15 16 17 19 19 19 19 17 14 12 11 11 12 15 19 22 23 26 28
2 2 2 2 2 2 2 3 5 7 8 10 10 10 10 11 12 13 15 15 15 16 18 18 18 18 18 19 21 23 24 22 18 14 11 11 12 16 20 22 23 25
2 2 2 2 2 2 2 3 5 7 9 10 10 10 10 10 11 12 14 15 16 17 18 19 20 20 20 20 21 24 27 28 27 22 17 13 11 12 16 19 21 23
2 2 2 2 2 2 4 5 6 7 8 9 9 10 9 9 9 10 11 13 13 14 14 15 17 18 19 21 22 25 27 29 31 31 28 22 16 12 12 15 18 20
2 2 2 3 2 3 5 5 6 6 7 7 8 9 10 12 13 14 16 17 18 17 17 18 18 17 18 19 21 24 27 29 31 33 35 32 27 20 15 13 13 16
2 3 3 3 3 4 4 4 5 5 5 6 7 10 13 17 19 21 23 25 26 26 26 26 26 25 23 22 22 23 26 29 32 34 35 36 35 31 25 18 14 13
3 3 3 3 3 3 3 3 4 4 5 7 9 13 17 21 26 29 31 32 31 30 30 30 30 30 29 28 28 28 28 30 33 34 35 36 37 36 33 27 20 15
3 2 3 3 2 3 3 3 4 5 9 13 16 21 26 32 37 39 39 36 34 33 31 31 31 30 31 31 31 31 32 34 36 36 36 36 36 37 36 34 28 22
2 2 2 3 2 2 2 3 7 12 18 23 26 29 33 36 39 42 42 39 38 37 36 34 32 31 32 32 32 33 33 35 36 37 37 37 36 36 36 35 33 28
2 2 2 3 2 3 5 9 15 20 25 29 31 33 34 34 35 38 41 40 38 35 32 31 29 28 30 32 34 35 36 37 38 39 39 38 36 35 35 35 33 31
3 4 5 7 8 10 13 17 21 25 31 34 35 35 35 35 35 35 37 37 34 29 27 26 25 23 24 26 28 30 31 31 32 32 32 32 31 30 30 30 30 30
7 10 15 18 20 21 22 23 26 31 36 38 38 39 39 39 38 37 36 34 31 29 26 23 20 18 17 16 16 17 17 16 16 16 18 20 22 22 21 21 22 24
15 19 23 27 27 26 25 27 30 34 37 40 42 44 45 44 41 41 38 32 29 28 25 20 17 15 13 12 10 10 10 10 10 11 12 14 15 16 17 18 19 21
18 22 25 27 26 23 24 29 33 35 37 41 44 47 49 47 44 42 39 32 29 28 23 20 18 15 13 13 12 12 13 14 15 16 17 18 18 17 15 15 16 17
17 20 23 23 21 20 25 31 35 37 39 42 46 48 50 49 45 42 39 33 30 28 24 21 20 19 20 20 20 22 23 25 28 29 31 32 31 29 25 22 20 18
13 15 18 18 17 16 21 30 38 41 42 44 47 49 50 49 46 43 39 34 31 29 26 25 25 26 28 30 31 32 33 35 37 39 40 40 39 39 38 38 37 34
15 14 13 14 14 13 17 30 42 47 47 47 49 52 52 50 47 44 40 36 34 32 28 28 30 33 37 39 39 39 38 37 39 42 44 45 44 43 44 46 46 46
34 30 25 22 20 20 25 37 47 51 52 51 52 54 54 51 47 43 40 38 36 34 32 31 34 39 44 47 47 46 44 42 41 43 46 47 47 48 50 53 53 53
44 38 35 35 35 34 36 41 48 53 55 54 54 56 56 51 45 40 39 40 40 37 34 34 37 43 48 52 53 54 53 51 48 47 47 49 51 53 56 57 56 55
45 38 32 33 41 47 46 46 51 56 58 57 56 57 54 49 45 41 37 38 41 42 39 38 40 46 51 55 57 59 60 59 57 55 53 54 57 59 59 57 54 53
44 40 30 24 35 52 59 57 59 60 60 59 59 55 47 41 41 41 36 35 39 43 44 44 45 48 53 57 60 63 64 63 62 61 60 61 63 64 62 60 58 56
46 42 34 26 33 51 63 64 65 64 62 61 55 46 38 33 34 38 40 41 41 40 42 46 50 52 55 58 61 64 66 65 65 66 67 67 68 67 67 68 68 66
52 45 38 32 36 52 63 65 64 62 60 55 45 35 31 32 35 38 42 44 43 41 42 46 50 52 53 55 58 62 63 64 65 68 70 71 73 73 73 73 73 73
57 50 42 35 35 44 54 57 55 52 48 42 36 33 34 37 39 40 39 40 42 44 45 47 49 51 51 51 55 59 61 63 66 69 72 75 77 78 79 78 77 77
59 53 46 39 37 37 39 42 42 40 39 38 39 42 44 43 42 41 40 41 42 44 47 48 51 55 55 54 58 63 66 69 71 72 74 76 78 79 80 80 78 78
57 54 50 47 49 51 48 48 48 45 43 44 46 48 47 45 43 43 43 43 43 44 45 45 48 55 61 64 66 68 69 69 69 69 70 73 75 77 77 75 74 74

ECMWFNIL_500_rhum_036.txt.gz
RH
3 3 3 4 4 4 4 4 4 5 5 6 6 7 8 8 10 12 13 14 15 15 15 16 17 18 18 18 19 21 22 21 18 14 12 11 11 13 14 16 16 17
3 3 3 3 4 4 3 4 4 5 6 8 8 9 9 11 12 14 15 16 16 15 15 15 16 18 19 20 21 22 25 27 27 24 21 17 13 11 12 14 15 17
3 3 3 3 3 3 3 3 4 5 7 8 9 9 10 11 12 13 13 13 13 14 13 13 13 14 16 19 20 22 24 27 29 31 31 28 23 18 14 12 12 14
2 2 3 3 3 2 2 2 3 4 5 6 7 7 8 9 9 9 9 9 9 9 9 9 9 9 11 13 16 19 22 25 27 31 34 35 33 30 26 22 17 14
2 2 3 2 2 2 2 2 3 4 5 5 6 6 6 6 6 6 5 5 6 7 10 11 11 11 11 11 12 13 15 19 23 26 30 34 36 36 36 34 31 25
1 2 2 2 2 2 2 3 3 4 5 5 5 5 5 6 6 8 9 11 13 16 19 21 21 20 20 19 17 16 15 17 20 23 27 31 34 36 37 38 37 35
2 2 2 2 3 3 3 4 4 5 5 5 5 4 6 9 12 16 20 23 25 27 30 31 30 29 28 27 25 23 22 22 23 26 28 31 33 35 36 37 38 37
2 2 2 2 3 3 5 5 5 5 5 4 5 6 9 14 20 26 32 35 36 36 36 35 34 33 33 31 30 29 28 27 28 30 32 33 35 35 36 36 37 37
2 3 2 3 4 4 5 5 4 4 4 6 9 13 18 23 29 36 41 43 43 41 39 38 38 38 37 37 36 35 34 33 33 34 34 35 36 37 37 36 35 34
3 2 3 3 3 4 4 4 3 4 7 13 19 23 27 31 34 38 42 46 46 43 41 40 38 37 36 36 37 38 39 39 39 39 39 38 38 36 33 31 29 27
3 2 3 3 3 4 3 3 4 9 16 22 27 31 33 35 36 37 40 44 44 43 40 36 33 32 31 30 31 33 34 35 36 35 34 32 29 26 24 23 23 22
3 2 2 2 2 2 2 5 10 17 23 29 33 35 37 39 41 41 41 40 40 38 35 32 30 27 25 23 21 20 20 20 20 19 18 17 17 17 18 19 20 20
3 3 3 3 3 4 7 12 18 23 29 35 38 40 41 43 44 44 44 42 39 35 31 29 27 22 19 16 13 12 11 12 14 15 17 19 19 19 19 19 19 19
5 6 6 6 6 9 15 21 25 28 33 38 40 43 45 47 48 47 46 44 40 34 30 27 23 19 16 13 12 14 17 22 28 32 34 35 34 33 33 33 32 32
8 9 10 11 12 17 22 26 29 32 35 38 41 45 48 49 51 49 47 46 41 35 30 26 21 19 17 17 21 25 30 36 40 44 45 45 44 44 44 45 45 45
11 13 16 17 20 24 26 27 29 33 36 39 42 45 49 51 52 52 50 47 42 35 30 25 22 22 23 26 31 34 38 41 44 48 50 49 48 50 51 53 54 54
14 18 22 24 25 26 26 24 24 29 36 43 44 45 48 52 54 55 52 47 42 36 31 26 25 27 30 34 37 39 42 45 48 52 53 51 51 52 55 59 61 63
15 18 20 22 24 24 23 21 19 18 26 40 48 48 49 53 57 58 54 48 42 37 32 29 28 31 36 40 43 44 46 50 53 55 55 54 54 55 58 60 61 63
34 30 27 25 24 23 21 19 15 15 22 38 51 53 50 53 58 59 56 49 42 38 35 32 31 33 39 45 47 48 49 52 55 56 56 57 58 60 62 62 61 60
56 50 43 36 32 28 24 20 20 25 32 41 52 54 52 55 59 60 57 50 43 39 37 35 33 35 41 47 51 53 52 53 55 56 57 59 60 62 65 67 68 64
60 55 48 40 34 31 29 28 30 38 46 50 54 57 56 57 60 61 56 48 41 36 35 37 37 38 43 48 54 59 58 54 53 53 54 57 60 63 66 69 68 63
58 54 48 40 32 26 26 31 39 51 60 62 61 61 60 59 61 60 52 42 38 35 33 37 42 44 46 49 54 60 61 57 54 52 50 52 55 56 55 56 57 58
59 55 49 41 32 24 20 27 44 62 70 71 68 65 62 62 62 58 47 36 33 34 37 42 48 48 48 50 54 59 62 62 59 56 55 55 56 53 51 55 64 71
65 63 57 47 37 28 19 23 45 66 72 72 71 67 64 64 59 49 39 30 27 31 40 48 53 54 53 55 58 60 62 62 61 60 61 61 61 61 63 70 77 81
66 65 63 55 46 37 25 22 42 67 74 72 70 68 65 60 50 38 33 32 32 34 39 45 50 54 53 54 58 60 60 60 59 57 58 61 66 71 75 78 80 80
67 65 64 60 56 51 38 27 34 53 65 66 65 63 56 46 36 32 35 40 41 40 39 40 44 48 48 49 50 51 50 50 48 48 54 65 73 76 78 79 79 80

ECMWFNIL_500_rhum_042.txt.gz
RH
4 6 7 7 7 6 6 5 5 5 5 5 5 5 6 6 8 10 12 15 18 19 21 21 22 23 23 23 24 25 25 25 25 23 20 18 16 16 16 15 15 16
3 4 6 7 7 6 6 6 5 5 5 5 5 5 6 7 9 11 14 17 19 19 19 19 18 18 18 18 20 21 24 27 30 32 33 32 31 30 29 28 25 22
3 3 4 6 6 6 6 6 5 5 5 5 5 6 7 9 11 13 16 18 18 18 16 15 13 12 12 12 12 14 16 19 22 27 31 34 37 38 37 36 34 31
3 3 4 4 5 6 5 5 5 4 5 5 5 7 8 11 14 16 18 18 17 16 14 12 10 8 8 8 8 9 9 10 14 18 21 26 32 35 37 37 36 35
3 3 4 4 4 5 5 4 5 4 4 5 7 8 10 14 16 18 18 17 15 13 11 10 8 6 6 6 7 8 9 9 10 12 14 18 23 29 33 35 35 36
4 3 3 4 4 4 4 4 4 4 5 6 8 10 13 15 16 17 16 14 13 10 9 7 6 5 6 7 8 10 13 14 13 13 15 17 21 25 28 31 32 33
4 4 4 4 3 4 4 4 4 4 5 7 9 11 14 15 15 15 13 11 10 8 6 5 5 7 9 11 13 16 18 20 19 19 20 21 22 25 27 29 30 32
4 4 4 4 3 3 4 4 4 4 5 7 9 11 13 14 13 12 11 9 7 5 5 7 10 14 18 21 24 25 25 24 24 23 23 23 23 25 27 27 29 33
4 4 4 3 3 3 4 4 4 4 4 6 8 10 11 11 11 10 8 6 5 5 8 13 20 27 30 32 33 34 33 32 30 28 26 25 25 27 27 28 32 34
4 3 3 3 3 3 3 4 3 3 4 5 6 8 9 8 7 7 6 5 5 9 15 24 32 38 39 39 39 39 39 38 36 33 30 29 28 28 28 31 34 30
5 4 3 3 3 3 3 3 3 3 3 4 5 6 6 6 6 5 4 5 10 16 25 34 40 44 43 42 42 41 39 38 38 37 35 32 30 30 33 35 32 25
6 4 4 3 3 3 3 3 3 2 2 3 4 5 5 5 5 4 4 9 16 24 33 40 44 46 45 44 42 38 35 34 35 38 38 37 35 35 36 33 26 22
7 6 5 4 3 3 3 3 2 2 2 3 4 5 5 5 4 4 7 15 23 30 36 42 45 47 47 44 40 35 31 29 29 32 36 38 38 36 33 27 21 19
8 7 7 5 3 2 3 3 2 2 2 3 5 5 5 4 5 8 14 22 29 32 36 41 46 48 46 42 38 33 29 24 22 24 28 29 28 26 24 20 18 18
7 7 7 5 3 2 2 3 2 3 3 3 5 5 4 5 10 16 23 29 32 35 38 43 47 48 44 39 35 30 25 19 16 16 18 18 17 18 17 17 19 23
6 6 6 3 2 2 2 3 3 3 4 4 4 3 4 10 18 24 29 33 35 39 43 47 49 47 43 36 30 26 20 15 12 12 13 15 17 20 22 24 27 32
5 5 4 2 3 3 3 3 3 3 4 4 3 4 8 17 25 30 34 36 38 42 46 49 50 48 43 35 27 22 17 13 12 13 15 21 26 30 32 33 36 41
4 3 3 2 3 3 3 3 3 3 3 3 3 6 14 24 30 35 39 40 41 45 50 51 50 48 43 36 26 20 16 13 15 20 25 31 35 37 38 40 45 51
3 2 3 3 3 3 3 3 3 3 3 2 4 11 21 30 36 39 43 44 45 49 53 53 51 48 45 37 27 20 17 18 24 31 36 39 40 40 41 44 51 57
3 3 3 3 4 3 3 3 3 3 3 3 8 18 27 34 39 42 45 47 49 51 54 53 52 50 47 38 29 22 21 26 34 39 41 43 44 43 43 46 53 59
4 4 4 4 4 3 3 3 3 2 4 9 17 26 34 38 41 44 45 47 49 51 52 53 54 54 50 42 33 26 25 32 40 43 45 48 49 48 49 51 56 60
5 5 5 5 4 4 4 5 7 10 14 21 29 34 38 41 43 44 46 47 49 50 51 55 58 58 54 46 37 30 27 34 42 45 47 51 53 53 55 59 61 64
7 8 9 10 12 15 19 22 25 30 34 38 41 42 44 46 46 47 49 49 48 49 52 57 61 61 58 51 42 35 30 33 40 43 44 49 53 53 56 62 65 67
13 16 21 27 32 37 41 43 43 45 46 46 45 43 43 43 43 44 45 47 49 51 54 59 62 62 61 57 49 41 35 33 35 38 40 45 52 56 61 67 69 68
24 28 35 42 46 47 47 46 45 43 42 41 38 36 34 32 30 29 30 34 43 51 56 59 63 63 63 61 56 48 41 36 33 34 37 44 52 60 66 70 71 68
35 38 43 49 51 50 48 44 40 38 36 34 32 30 28 26 24 22 22 24 32 48 59 61 63 65 65 64 61 54 46 41 36 33 35 40 47 53 59 63 65 64

ECMWFNIL_500_rhum_045.txt.gz
RH
7 7 6 6 6 6 6 6 6 6 6 6 6 6 6 6 8 10 12 15 17 20 21 22 22 23 22 22 21 20 19 16 14 13 12 13 13 14 15 16 18 20
7 7 7 6 6 6 6 6 6 5 6 6 6 6 6 6 9 11 15 18 21 22 22 21 21 21 22 24 25 27 29 28 27 26 25 24 23 23 23 23 22 22
6 7 7 7 6 6 6 6 6 5 5 5 5 6 6 7 9 12 16 19 20 20 19 17 16 15 15 16 17 20 23 26 30 32 34 35 35 35 35 34 33 31
5 5 6 7 7 6 6 6 6 5 5 5 5 5 6 7 9 13 17 19 19 18 16 14 12 10 10 9 10 11 13 15 19 23 28 32 36 38 39 39 38 37
4 4 5 6 7 7 7 6 6 6 5 5 5 6 6 7 10 14 17 19 18 16 14 12 10 8 7 7 7 8 9 11 13 15 17 21 27 32 35 37 38 39
3 3 4 5 6 6 6 6 6 6 5 5 5 6 6 8 11 14 18 19 18 16 13 11 9 7 6 6 8 10 12 14 14 15 15 16 19 24 28 32 35 37
3 3 4 4 5 6 6 6 6 6 5 5 5 6 7 9 13 16 18 18 17 14 12 10 7 6 5 6 10 15 19 20 20 21 20 19 19 22 26 29 32 34
3 3 3 4 4 5 6 5 5 5 5 5 5 7 8 11 14 17 18 17 15 12 10 8 6 5 6 7 13 22 26 27 27 27 26 24 23 25 27 29 31 33
3 3 3 4 4 4 5 5 5 5 4 5 6 8 10 13 15 17 17 15 12 10 8 6 5 5 7 11 19 29 33 33 33 33 31 28 27 27 29 31 32 32
3 3 3 4 4 4 4 4 4 4 4 5 6 9 11 13 15 15 14 13 10 8 6 5 5 7 13 21 29 36 37 36 37 38 36 33 30 30 31 32 32 31
3 3 3 3 4 4 4 4 4 4 4 5 6 9 11 13 14 14 12 10 8 7 5 4 6 13 23 32 38 40 40 39 40 40 39 36 34 32 32 32 30 28
3 3 3 4 4 4 4 4 4 4 4 5 6 7 10 12 12 12 10 8 6 5 4 5 11 20 31 39 43 43 42 42 41 40 38 37 37 35 33 31 28 24
4 4 4 4 4 4 4 3 4 4 4 4 5 6 8 10 9 9 8 6 5 4 4 7 16 27 37 42 43 43 43 42 39 37 36 36 36 36 34 30 25 21
5 5 4 4 4 4 4 3 3 4 4 4 4 5 6 7 7 7 7 5 5 4 5 11 23 36 42 43 43 42 41 38 35 33 33 32 33 33 32 27 21 16
7 7 6 6 5 4 4 4 3 4 4 4 4 4 5 5 6 6 6 5 4 3 6 18 33 43 44 44 44 42 39 34 31 30 30 29 29 28 26 22 16 14
9 9 9 8 7 6 4 4 3 3 4 3 3 3 3 4 6 5 5 5 4 4 11 26 40 46 45 44 44 43 39 32 29 27 26 24 21 20 18 15 14 15
10 11 12 11 10 7 5 5 4 3 4 3 3 3 3 4 4 4 4 4 4 8 19 33 43 46 45 45 46 45 41 34 28 25 22 19 15 14 14 14 16 20
11 12 13 12 11 9 7 6 4 3 3 3 3 2 2 3 4 4 4 4 7 16 28 38 44 45 44 46 47 46 43 37 30 24 19 16 13 12 15 19 24 26
11 12 13 12 11 9 8 7 5 3 3 3 3 3 3 3 4 3 3 6 13 25 34 41 45 44 43 46 48 47 45 40 33 25 19 15 13 15 22 28 31 31
11 11 11 11 9 8 8 7 4 2 2 3 2 3 3 3 4 3 5 12 23 32 38 43 47 47 45 47 49 47 45 43 37 28 20 16 19 24 30 34 35 32
9 9 9 8 6 6 6 5 3 2 2 3 3 3 3 3 3 4 8 19 30 36 41 46 50 50 48 49 51 49 47 46 41 31 22 21 27 33 37 38 36 34
7 6 6 6 5 5 5 3 3 2 2 3 3 3 4 3 3 5 13 26 35 39 43 47 52 54 51 50 51 51 50 50 44 33 26 27 34 38 40 41 39 37
6 5 5 5 4 4 3 3 3 3 3 4 3 3 4 3 3 9 21 32 38 41 45 48 52 53 51 50 52 52 54 55 49 38 31 32 37 41 42 44 43 41
5 5 4 4 3 3 3 3 3 3 3 3 3 3 3 3 5 15 27 36 39 43 46 48 51 52 49 49 51 53 56 58 55 46 37 34 39 44 45 46 46 43
5 4 4 3 3 3 3 4 4 4 4 4 4 4 5 7 13 22 32 38 41 44 46 47 49 50 49 49 51 52 56 60 60 54 43 37 42 47 47 47 47 46
5 5 4 3 4 4 4 5 5 7 8 9 11 12 13 17 24 32 38 42 43 45 47 48 50 50 49 49 48 50 55 60 63 61 50 41 41 45 45 45 46 47

ECMWFNIL_500_rhum_048.txt.gz
RH
6 6 7 7 7 7 6 6 6 7 7 7 6 6 6 6 7 7 7 7 7 8 8 8 8 8 8 8 8 8 9 9 10 11 11 12 13 15 16 16 15 13
6 6 7 7 7 7 6 6 6 6 7 7 6 6 6 7 8 9 9 11 13 15 16 16 17 17 17 17 16 15 14 13 12 11 11 11 12 13 14 14 14 13
6 6 7 7 7 7 6 6 6 6 7 7 7 6 7 7 8 11 14 18 21 22 23 23 23 24 24 25 26 26 26 26 25 24 23 22 22 22 22 23 22 21
6 7 7 7 6 6 6 6 6 6 6 6 7 6 7 7 9 13 18 22 22 22 21 20 19 18 18 18 19 21 23 26 28 30 33 34 35 35 35 35 34 33
6 7 7 6 6 6 6 6 6 6 6 6 6 6 7 7 9 14 19 21 21 20 19 16 13 12 11 10 10 10 12 13 16 20 24 27 31 34 36 37 37 37
7 7 7 7 6 6 6 6 6 6 6 6 6 6 6 7 10 14 18 20 20 19 17 14 11 9 8 7 7 7 7 8 9 12 14 17 19 23 28 32 34 35
7 7 7 7 6 6 6 6 6 6 6 6 6 6 6 7 10 14 17 19 19 18 16 13 11 9 7 6 7 9 10 10 11 13 14 14 16 18 22 26 30 32
6 7 6 7 6 7 7 6 6 6 6 6 6 6 6 7 9 13 16 18 19 18 15 13 12 9 7 6 7 12 15 17 19 20 20 19 21 22 22 24 29 31
6 6 6 6 6 7 7 7 7 6 6 6 6 6 6 7 8 11 15 18 19 18 16 14 11 9 7 6 9 16 22 25 28 29 28 27 28 27 26 26 30 31
6 6 5 5 6 6 7 7 6 6 6 6 5 5 6 7 8 11 15 18 19 18 16 13 11 8 6 6 12 21 29 33 34 34 34 33 34 33 30 29 31 31
5 6 5 5 5 6 6 6 6 6 6 6 5 5 6 7 8 11 15 18 18 17 15 12 10 7 5 7 15 26 33 37 37 37 37 38 38 37 34 32 30 31
5 5 5 4 5 5 5 6 6 5 5 5 5 5 6 7 9 12 15 17 17 17 14 11 9 6 5 9 19 30 37 40 40 40 39 40 40 39 36 34 30 30
5 5 5 4 4 4 4 5 5 5 5 4 4 5 6 8 10 12 15 16 16 16 13 10 8 5 5 11 23 34 40 42 41 40 40 39 38 36 34 32 29 28
4 4 5 4 3 4 4 4 5 5 5 4 4 4 6 8 11 13 15 16 16 15 12 9 7 4 6 14 27 37 40 41 40 38 37 36 34 34 32 28 24 24
4 4 4 4 3 3 3 4 4 4 4 4 4 4 6 8 11 12 14 15 15 14 12 8 6 4 7 18 31 37 39 40 40 38 35 33 31 31 29 24 20 19
4 4 4 4 3 4 4 4 4 4 4 4 4 4 5 7 10 12 13 13 13 13 11 8 5 4 9 22 32 35 37 40 41 39 36 32 30 28 25 20 16 14
4 4 4 4 3 4 4 4 4 4 4 4 4 4 4 6 9 10 12 12 12 12 10 7 5 4 11 24 31 32 36 40 41 40 37 32 29 25 21 17 13 12
5 4 4 3 4 4 4 4 4 4 4 4 4 4 4 5 6 8 10 10 11 10 9 7 4 4 13 25 30 30 35 40 42 42 40 35 29 24 19 15 13 12
8 6 5 5 4 4 4 4 5 5 5 5 4 4 4 4 4 5 7 8 8 8 7 6 4 5 15 27 30 30 35 39 41 42 42 38 32 25 19 15 14 15
8 8 7 7 6 5 5 5 5 6 6 5 5 4 4 4 4 4 4 5 6 6 6 6 3 5 17 29 32 32 35 38 39 41 43 42 37 29 23 19 17 19
7 7 7 8 8 7 6 6 7 8 8 7 5 5 4 4 4 4 3 3 4 4 5 5 3 8 22 32 35 35 36 37 39 42 44 45 42 35 29 25 23 25
8 7 6 7 8 8 8 8 9 10 10 8 6 5 5 4 4 4 3 3 3 3 4 4 4 13 26 35 37 37 38 39 43 46 47 48 46 42 36 32 30 30
12 9 7 7 8 9 10 10 11 11 11 9 7 6 5 4 4 3 3 3 3 3 4 4 7 19 31 36 37 38 38 42 46 49 51 52 51 48 43 37 33 34
14 9 7 7 9 10 10 11 11 11 10 7 6 6 5 3 3 3 3 3 3 4 4 4 11 23 32 36 39 40 40 44 48 50 52 54 55 54 50 43 37 36
12 7 6 7 8 9 10 11 10 9 8 6 6 5 4 3 3 3 3 3 4 4 3 6 14 25 33 36 39 41 42 45 48 50 52 55 56 56 54 49 42 39
11 6 6 7 6 8 8 8 8 7 5 5 5 4 3 3 3 3 3 3 4 4 3 7 17 27 34 37 39 41 43 45 47 49 52 54 55 57 56 53 48 43